Waarnemingen

Advertentie
Mijn weer
St-Hubert, België (6476): temperatuur & dauwpunt: 11.02.2019 15:00:00 - 17.02.2019 15:00:00 (CET)St-Hubert, België (6476): windsnelheid & windstoten: 11.02.2019 15:00:00 - 17.02.2019 15:00:00 (CET)St-Hubert, België (6476): windrichting: 11.02.2019 15:00:00 - 17.02.2019 15:00:00 (CET)St-Hubert, België (6476): luchtdruk: 11.02.2019 15:00:00 - 17.02.2019 15:00:00 (CET)St-Hubert, België (6476): zicht: 11.02.2019 15:00:00 - 17.02.2019 15:00:00 (CET)
Datum & Tijd tt [°C] td [°C] ff [km/u] ff [kn] fx [km/u] fx [kn] dd ppp [hPa] vv [km]
17.02.2019 15:00:00 - - - - - - - - -
17.02.2019 14:00:00 12,2 -3,1 18 10 32 18 ZZW 1021,2 35
17.02.2019 13:00:00 12,3 -2,8 18 10 - - ZZW 1021,7 35
17.02.2019 12:00:00 11,2 -3,6 18 10 29 16 ZZW 1022,1 35
17.02.2019 11:00:00 8,8 -2,2 11 6 22 12 ZZW 1022,9 27
17.02.2019 10:00:00 7,0 -1,4 11 6 - - Z 1023,4 20
17.02.2019 09:00:00 5,1 -0,7 18 10 25 14 ZZO 1024,0 19
17.02.2019 08:00:00 4,9 -0,9 18 10 25 14 ZZO 1023,9 18
17.02.2019 07:00:00 4,7 -0,2 18 10 - - ZZO 1023,9 15
17.02.2019 06:00:00 4,9 0,4 18 10 22 12 ZZO 1024,4 12
17.02.2019 05:00:00 4,9 0,1 14 8 18 10 ZZO 1024,6 14
17.02.2019 04:00:00 5,6 0,0 14 8 - - Z 1024,9 14
17.02.2019 03:00:00 5,3 0,6 11 6 14 8 Z 1025,5 13
17.02.2019 02:00:00 5,5 1,0 11 6 14 8 Z 1025,9 13
17.02.2019 01:00:00 6,1 1,2 11 6 - - Z 1026,2 12
17.02.2019 00:00:00 7,3 1,7 11 6 22 12 Z 1026,0 13
16.02.2019 23:00:00 6,0 1,0 14 8 22 12 ZZO 1026,7 12
16.02.2019 22:00:00 6,2 0,6 11 6 - - Z 1026,8 16
16.02.2019 21:00:00 5,4 -1,2 11 6 14 8 Z 1027,1 30
16.02.2019 20:00:00 5,8 -1,8 11 6 14 8 Z 1027,2 30
16.02.2019 19:00:00 7,3 -1,6 7 4 - - Z 1026,9 35
16.02.2019 18:00:00 8,2 -1,6 11 6 18 10 ZZW 1026,8 40
16.02.2019 17:00:00 12,2 -3,0 11 6 18 10 Z 1025,8 40
16.02.2019 16:00:00 13,7 -3,0 11 6 - - WZW 1025,8 40
16.02.2019 15:00:00 14,0 -0,9 11 6 25 14 WZW 1025,9 40
16.02.2019 14:00:00 13,1 -4,0 18 10 25 14 WZW 1026,5 30
16.02.2019 13:00:00 12,6 -4,0 14 8 - - WZW 1026,8 23
16.02.2019 12:00:00 10,7 -2,1 18 10 22 12 ZW 1027,5 18
16.02.2019 11:00:00 9,7 0,0 14 8 22 12 ZW 1027,4 30
16.02.2019 10:00:00 7,2 -0,7 14 8 - - ZZW 1028,0 29
16.02.2019 09:00:00 4,5 -1,3 7 4 14 8 ZZW 1028,5 21
16.02.2019 08:00:00 3,3 -1,9 7 4 14 8 Z 1028,4 22
16.02.2019 07:00:00 3,7 -1,7 11 6 - - Z 1027,9 27
16.02.2019 06:00:00 5,6 -2,1 7 4 14 8 ZZW 1028,0 30
16.02.2019 05:00:00 5,1 -1,8 11 6 25 14 ZZW 1028,3 30
16.02.2019 04:00:00 6,0 -1,3 18 10 - - ZZO 1028,3 40
16.02.2019 03:00:00 5,8 -1,6 22 12 32 18 ZZO 1028,4 40
16.02.2019 02:00:00 5,6 -1,3 18 10 29 16 ZZO 1028,8 45
16.02.2019 01:00:00 6,4 -1,0 22 12 - - ZZO 1028,5 40
16.02.2019 00:00:00 6,5 -0,8 14 8 25 14 ZO 1028,8 45
15.02.2019 23:00:00 6,2 -1,2 14 8 29 16 ZZO 1029,2 45
15.02.2019 22:00:00 8,0 -1,9 22 12 - - ZZO 1029,0 45
15.02.2019 21:00:00 7,0 -2,0 22 12 32 18 ZZO 1029,3 45
15.02.2019 20:00:00 7,9 -1,6 25 14 32 18 ZO 1029,1 45
15.02.2019 19:00:00 8,2 -1,9 18 10 - - ZO 1029,3 45
15.02.2019 18:00:00 9,3 -2,1 14 8 22 12 ZO 1029,0 45
15.02.2019 17:00:00 11,3 -1,9 14 8 22 12 ZZO 1028,9 40
15.02.2019 16:00:00 12,8 -2,7 14 8 - - ZO 1029,3 35
15.02.2019 15:00:00 13,3 -3,4 14 8 29 16 ZO 1029,5 35
15.02.2019 14:00:00 12,9 -4,1 18 10 29 16 ZZO 1030,2 30
15.02.2019 13:00:00 12,3 -3,7 18 10 - - ZZO 1031,2 35
15.02.2019 12:00:00 10,9 -4,6 18 10 29 16 ZO 1032,0 35
15.02.2019 11:00:00 10,2 -4,7 18 10 29 16 ZO 1032,1 40
15.02.2019 10:00:00 9,2 -5,6 14 8 - - ZO 1032,5 40
15.02.2019 09:00:00 8,3 -5,5 18 10 29 16 ZO 1032,8 45
15.02.2019 08:00:00 7,0 -5,1 18 10 29 16 ZO 1032,9 50
15.02.2019 07:00:00 6,1 -4,0 22 12 - - ZO 1033,0 45
15.02.2019 06:00:00 7,1 -4,3 18 10 29 16 ZO 1032,9 50
15.02.2019 05:00:00 6,3 -4,9 18 10 32 18 ZO 1033,1 45
15.02.2019 04:00:00 5,9 -6,9 22 12 - - ZO 1033,4 45
15.02.2019 03:00:00 6,1 -6,5 22 12 32 18 ZO 1033,8 50
15.02.2019 02:00:00 6,7 -5,4 22 12 36 19 ZO 1033,8 50
15.02.2019 01:00:00 6,0 -5,2 22 12 - - ZO 1034,2 45
15.02.2019 00:00:00 6,4 -6,3 22 12 32 18 ZO 1034,0 45
14.02.2019 23:00:00 6,7 -4,6 22 12 32 18 ZO 1034,2 45
14.02.2019 22:00:00 6,3 -3,4 22 12 - - OZO 1034,4 45
14.02.2019 21:00:00 6,8 -2,9 22 12 32 18 ZO 1034,4 45
14.02.2019 20:00:00 6,8 -2,6 18 10 29 16 OZO 1034,5 45
14.02.2019 19:00:00 6,6 -4,4 14 8 - - O 1034,7 45
14.02.2019 18:00:00 7,3 -3,8 11 6 22 12 OZO 1034,3 45
14.02.2019 17:00:00 9,5 -3,6 11 6 22 12 OZO 1034,1 45
14.02.2019 16:00:00 10,4 -3,3 14 8 - - OZO 1034,2 45
14.02.2019 15:00:00 10,7 -4,3 22 12 32 18 ZO 1034,4 45
14.02.2019 14:00:00 10,4 -4,0 18 10 25 14 OZO 1034,9 40
14.02.2019 13:00:00 10,2 -4,7 14 8 - - ZO 1035,6 45
14.02.2019 12:00:00 9,3 -6,4 18 10 32 18 ZO 1035,9 35
14.02.2019 11:00:00 8,2 -8,3 18 10 29 16 ZO 1036,1 40
14.02.2019 10:00:00 7,2 -6,5 18 10 - - ZO 1036,3 45
14.02.2019 09:00:00 5,5 -7,5 22 12 29 16 ZZO 1036,9 45
14.02.2019 08:00:00 4,8 -8,5 14 8 22 12 ZZO 1036,4 50
14.02.2019 07:00:00 4,5 -7,5 18 10 - - ZZO 1036,0 50
14.02.2019 06:00:00 3,6 -3,9 18 10 25 14 ZZO 1036,4 45
14.02.2019 05:00:00 3,5 -5,3 14 8 22 12 ZZO 1036,5 50
14.02.2019 04:00:00 3,6 -5,2 14 8 - - ZZO 1036,5 50
14.02.2019 03:00:00 3,5 -4,5 18 10 22 12 ZZO 1036,5 50
14.02.2019 02:00:00 3,3 -4,0 18 10 25 14 ZZO 1036,6 45
14.02.2019 01:00:00 3,2 -5,2 14 8 - - ZZO 1036,8 45
14.02.2019 00:00:00 2,7 -5,3 14 8 22 12 ZZO 1036,9 50
13.02.2019 23:00:00 2,9 -8,1 14 8 18 10 ZZO 1037,1 50
13.02.2019 22:00:00 3,4 -8,6 14 8 - - ZZO 1037,0 50
13.02.2019 21:00:00 2,4 -6,5 14 8 18 10 ZZO 1037,1 45
13.02.2019 20:00:00 2,6 -5,5 11 6 18 10 ZO 1037,2 45
13.02.2019 19:00:00 1,3 -1,8 11 6 - - ZO 1037,6 45
13.02.2019 18:00:00 3,2 -1,5 4 2 14 8 Z 1036,9 45
13.02.2019 17:00:00 4,7 -1,0 11 6 14 8 Z 1036,3 45
13.02.2019 16:00:00 5,8 -0,4 7 4 - - ZZW 1036,1 35
13.02.2019 15:00:00 5,8 -0,6 11 6 14 8 ZW 1036,3 35
13.02.2019 14:00:00 5,7 -0,8 7 4 14 8 WZW 1036,6 35
13.02.2019 13:00:00 4,4 -0,8 7 4 - - WZW 1037,1 35
13.02.2019 12:00:00 3,0 -1,0 11 6 14 8 ZZW 1037,7 22
13.02.2019 11:00:00 1,7 -1,2 11 6 18 10 Z 1038,1 30
13.02.2019 10:00:00 0,4 -1,9 7 4 - - ZZW 1038,6 35
13.02.2019 09:00:00 -1,1 -2,8 7 4 11 6 Z 1038,7 40
13.02.2019 08:00:00 -2,4 -3,8 7 4 11 6 ZZW 1038,5 30
13.02.2019 07:00:00 -2,3 -4,1 7 4 - - ZZW 1038,3 35
13.02.2019 06:00:00 -2,5 -4,0 7 4 11 6 Z 1038,7 30
13.02.2019 05:00:00 -2,7 -4,0 7 4 11 6 ZZW 1038,8 30
13.02.2019 04:00:00 -2,8 -4,0 4 2 - - ZW 1039,2 24
13.02.2019 03:00:00 -2,6 -3,7 7 4 11 6 ZW 1039,3 9
13.02.2019 02:00:00 -2,3 -2,6 7 4 11 6 ZW 1038,9 0,1
13.02.2019 01:00:00 -2,4 -2,8 7 4 - - ZW 1039,2 0,2
13.02.2019 00:00:00 -1,8 -2,3 11 6 14 8 ZZW 1038,6 0,2
12.02.2019 23:00:00 -1,8 -2,1 7 4 14 8 ZZW 1038,7 0,1
12.02.2019 22:00:00 -0,9 -1,8 11 6 - - WZW 1038,5 2,6
12.02.2019 21:00:00 -1,1 -2,3 7 4 11 6 WZW 1038,3 5
12.02.2019 20:00:00 -1,1 -1,9 11 6 18 10 ZZW 1038,3 4,5
12.02.2019 19:00:00 -0,1 -1,2 14 8 - - WZW 1038,1 3,2
12.02.2019 18:00:00 1,1 -0,4 14 8 18 10 WZW 1037,2 9
12.02.2019 17:00:00 3,0 -2,3 11 6 18 10 ZW 1036,3 45
12.02.2019 16:00:00 3,6 -2,5 11 6 - - ZW 1036,2 40
12.02.2019 15:00:00 3,9 -2,5 11 6 18 10 WZW 1035,9 40
12.02.2019 14:00:00 2,8 -0,8 7 4 18 10 W 1036,4 26
12.02.2019 13:00:00 0,9 0,0 11 6 - - WZW 1037,1 4,3
12.02.2019 12:00:00 0,3 -0,5 7 4 11 6 W 1037,2 0,5
12.02.2019 11:00:00 -0,5 -1,3 7 4 11 6 WZW 1037,4 0,2
12.02.2019 10:00:00 -1,4 -2,1 7 4 - - W 1037,3 0,2
12.02.2019 09:00:00 -1,7 -2,3 11 6 11 6 WZW 1036,6 0,1
12.02.2019 08:00:00 -1,6 -1,8 7 4 11 6 WZW 1035,7 0,1
12.02.2019 07:00:00 -1,6 -2,1 7 4 - - WNW 1035,3 0,2
12.02.2019 06:00:00 -1,9 -2,4 7 4 11 6 W 1035,2 0,1
12.02.2019 05:00:00 -1,5 -2,4 7 4 18 10 WNW 1035,1 3,4
12.02.2019 04:00:00 -0,9 -1,9 11 6 - - NW 1035,0 0,5
12.02.2019 03:00:00 -0,2 -1,1 11 6 22 12 NW 1034,6 1,3
12.02.2019 02:00:00 0,3 -1,0 11 6 22 12 NW 1034,2 5
12.02.2019 01:00:00 0,4 -0,8 14 8 - - NW 1033,5 -
12.02.2019 00:00:00 0,5 -0,5 11 6 22 12 NNW 1032,9 2,5
11.02.2019 23:00:00 0,9 0,0 14 8 22 12 NW 1032,4 2,5
11.02.2019 22:00:00 1,3 0,3 11 6 - - NW 1031,5 5
11.02.2019 21:00:00 1,5 0,3 14 8 22 12 NNW 1030,9 10
11.02.2019 20:00:00 1,6 0,3 11 6 29 16 NNW 1030,0 14
11.02.2019 19:00:00 1,7 0,3 14 8 - - NW 1029,1 19
11.02.2019 18:00:00 2,0 0,1 14 8 25 14 NW 1027,8 28
11.02.2019 17:00:00 2,2 0,1 14 8 25 14 NW 1026,3 35
11.02.2019 16:00:00 2,3 0,3 18 10 - - NW 1025,6 27
11.02.2019 15:00:00 1,7 0,6 14 8 32 18 WNW 1024,7 13

tt = temperatuur
td = dauwpunt
ff = windsnelheid
fx = windstoten
dd = windrichting
ppp = luchtdruk
vv = zicht

Weerstations in de omgeving